Weather History for Trenton, NJ

Change the Weather History Date:

Saturday, August 18, 2012

  Actual Average Record
Temperature  
Mean Temperature 71 °F 74 °F  
Max Temperature 80 °F 84 °F 96 °F (2002)
Min Temperature 62 °F 64 °F 53 °F (1915)
Degree Days  
Heating Degree Days 0 0  
Month to date heating degree days 0 0  
Since 1 June heating degree days 22 24  
Since 1 July heating degree days 0 0  
Cooling Degree Days 6 9  
Month to date cooling degree days 210 176  
Year to date cooling degree days 993 753  
Since 1 June cooling degree days 837 696  
Growing Degree Days 21 (Base 50)    
Moisture  
Dew Point 61 °F    
Average Humidity 69    
Maximum Humidity 93    
Minimum Humidity 45    
Precipitation  
Precipitation 0.32 in 0.14 in 2.92 in (1932)
Month to date precipitation 3.80 2.51  
Year to date precipitation 24.84 29.39  
Sea Level Pressure  
Sea Level Pressure 29.87 in    
Wind  
Wind Speed 5 mph (NNE)    
Max Wind Speed 12 mph    
Max Gust Speed 17 mph    
Visibility 9 miles    
Events Rain    
T = Trace of Precipitation, MM = Missing Value Source: NWS Daily Summary

Daily Weather History Graph

Daily Weather History Graph

Search for Another Location

Airport:

Trip Planner

Search our weather history database for the weather conditions in past years. The results will help you decide how hot, cold, wet, or windy it might be!

Date:

Astronomy

Aug. 18, 2012 Rise Set
Actual Time 6:13 AM EDT 7:51 PM EDT
Civil Twilight 5:44 AM EDT 8:20 PM EDT
Nautical Twilight 5:09 AM EDT 8:55 PM EDT
Astronomical Twilight 4:32 AM EDT 9:32 PM EDT
Moon 7:19 AM EDT (8/18) 8:05 PM EDT (8/18)
Length of Visible Light 14h 35m
Length of Day
13h 37m
New Moon, 1% of the Moon is Illuminated
Aug 18
New Moon
Aug 24
First Quarter
Aug 31
Full
Sep 8
Last Quarter
Sep 15
New

Hourly Weather History & Observations

Time (EDT) Temp. Heat Index Dew Point Humidity Pressure Visibility Wind Dir Wind Speed Gust Speed Precip Events Conditions
12:02 AM 69.8 °F - 66.2 °F 88% 29.85 in 2.5 mi ENE 4.6 mph - 0.06 in Rain Rain
12:10 AM 69.8 °F - 66.2 °F 88% 29.85 in 5.0 mi NNE 4.6 mph - 0.07 in Rain Light Rain
12:53 AM 69.1 °F - 66.9 °F 93% 29.82 in 8.0 mi NNE 4.6 mph - 0.07 in   Mostly Cloudy
1:17 AM 69.8 °F - 66.2 °F 88% 29.84 in 7.0 mi NNE 5.8 mph - N/A   Overcast
1:26 AM 69.8 °F - 66.2 °F 88% 29.85 in 7.0 mi NNE 6.9 mph - N/A   Overcast
1:53 AM 69.1 °F - 64.0 °F 84% 29.84 in 10.0 mi NE 4.6 mph - N/A   Overcast
2:53 AM 66.0 °F - 62.1 °F 87% 29.84 in 10.0 mi NNE 5.8 mph - 0.03 in Rain Light Rain
3:44 AM 64.4 °F - 62.6 °F 94% 29.87 in 5.0 mi NNE 9.2 mph - 0.08 in Rain Rain
3:53 AM 64.0 °F - 61.0 °F 90% 29.84 in 5.0 mi NNE 9.2 mph - 0.11 in Rain Heavy Rain
4:12 AM 62.6 °F - 60.8 °F 94% 29.86 in 5.0 mi NNE 8.1 mph - 0.05 in Rain Rain
4:53 AM 63.0 °F - 60.1 °F 90% 29.84 in 8.0 mi NNE 5.8 mph - 0.09 in Rain Light Rain
5:53 AM 63.0 °F - 61.0 °F 93% 29.85 in 10.0 mi NNE 3.5 mph - 0.02 in   Overcast
6:53 AM 64.0 °F - 61.0 °F 90% 29.87 in 10.0 mi North 3.5 mph - 0.02 in Rain Light Rain
7:53 AM 64.0 °F - 62.1 °F 93% 29.88 in 10.0 mi ENE 5.8 mph - 0.05 in Rain Light Rain
8:53 AM 64.9 °F - 61.0 °F 87% 29.89 in 10.0 mi NE 5.8 mph - N/A   Mostly Cloudy
9:03 AM 66.2 °F - 62.6 °F 88% 29.91 in 10.0 mi NE 4.6 mph - N/A   Overcast
9:26 AM 66.2 °F - 62.6 °F 88% 29.91 in 10.0 mi NNE 5.8 mph - N/A   Mostly Cloudy
9:53 AM 68.0 °F - 61.0 °F 78% 29.89 in 10.0 mi NNE 8.1 mph - N/A   Mostly Cloudy
10:05 AM 69.8 °F - 60.8 °F 73% 29.91 in 10.0 mi NNE 6.9 mph - N/A   Scattered Clouds
10:49 AM 71.6 °F - 60.8 °F 69% 29.92 in 10.0 mi NNE 9.2 mph - N/A   Mostly Cloudy
10:53 AM 72.0 °F - 60.1 °F 66% 29.91 in 10.0 mi NE 8.1 mph - N/A   Mostly Cloudy
11:03 AM 71.6 °F - 60.8 °F 69% 29.93 in 10.0 mi NE 6.9 mph - N/A   Mostly Cloudy
11:35 AM 73.4 °F - 60.8 °F 65% 29.92 in 10.0 mi NE 3.5 mph - N/A   Mostly Cloudy
11:53 AM 73.9 °F - 61.0 °F 64% 29.90 in 10.0 mi Variable 5.8 mph - N/A   Mostly Cloudy
12:14 PM 75.2 °F - 62.6 °F 65% 29.91 in 10.0 mi East 8.1 mph - N/A   Mostly Cloudy
12:53 PM 75.0 °F - 62.1 °F 64% 29.88 in 10.0 mi Variable 3.5 mph - N/A   Scattered Clouds
1:53 PM 75.9 °F - 61.0 °F 60% 29.87 in 10.0 mi NE 3.5 mph - N/A   Mostly Cloudy
2:53 PM 78.1 °F - 60.1 °F 54% 29.86 in 10.0 mi Variable 3.5 mph - N/A   Mostly Cloudy
3:53 PM 80.1 °F 80.4 °F 57.0 °F 45% 29.85 in 10.0 mi North 4.6 mph - N/A   Mostly Cloudy
4:53 PM 78.1 °F - 59.0 °F 52% 29.85 in 10.0 mi North 5.8 mph - N/A   Mostly Cloudy
5:53 PM 79.0 °F - 55.9 °F 45% 29.84 in 10.0 mi NNE 5.8 mph - N/A   Clear
6:53 PM 77.0 °F - 57.0 °F 50% 29.85 in 10.0 mi North 4.6 mph - N/A   Clear
7:53 PM 73.9 °F - 59.0 °F 59% 29.86 in 10.0 mi Calm Calm - N/A   Clear
8:53 PM 70.0 °F - 59.0 °F 68% 29.88 in 10.0 mi North 4.6 mph - N/A   Clear
9:53 PM 66.9 °F - 57.0 °F 70% 29.90 in 10.0 mi NNE 5.8 mph - N/A   Clear
10:53 PM 66.0 °F - 54.0 °F 65% 29.92 in 10.0 mi North 3.5 mph - N/A   Clear
11:53 PM 64.0 °F - 54.0 °F 70% 29.91 in 10.0 mi North 4.6 mph - N/A   Clear